Regional Weather Roundup
Issued by NWS

Home | Current Version | Previous Version | Text Only | Print | Product List | Glossary Off
Versions: 1 2 3 4 5 6 7 8 9 10 11 12 13 14 15 16 17 18 19 20 21 22 23 24 25 26 27 28 29 30 31 32 33 34 35 36 37 38 39 40 41 42 43 44 45 46 47 48 49 50

000
ASUS43 KMKX 280300
RWRWI

WISCONSIN REGIONAL WEATHER ROUNDUP
NATIONAL WEATHER SERVICE MILWAUKEE/SULLIVAN WI
900 PM CST SAT DEC 27 2014

NOTE: "FAIR" INDICATES FEW OR NO CLOUDS BELOW 12,000 FEET WITH NO
SIGNIFICANT WEATHER AND/OR OBSTRUCTIONS TO VISIBILITY.

WIZ001-002-006>008-014>016-023>028-280400-
NORTHWEST WISCONSIN

CITY           SKY/WX    TMP DP  RH WIND       PRES   REMARKS
SUPERIOR ARPT  CLOUDY    24  10  55 W8        30.03S WCI  14
ASHLAND        PTCLDY    18  10  71 SW9       30.01S WCI   7
HAYWARD        CLOUDY    15  11  83 S6        30.02S WCI   6
SIREN          CLOUDY    19  10  69 W9        30.06R WCI   7
CUMBERLAND     CLEAR     12   7  79 SW8       30.03S WCI   1
RICE LAKE      CLEAR     16  10  78 SW6       30.06S WCI   7
CHETEK         CLEAR     10   9  94 MISG      30.06S
LADYSMITH      CLEAR      8   6  91 CALM      30.05S
EAU CLAIRE     NOT AVBL
MENOMONIE      CLEAR     15   9  75 SW12      30.10R WCI   2
NEW RICHMOND   CLEAR     11   6  82 SW7       30.09S WCI   0
OSCEOLA        CLOUDY    15  10  77 SW7       30.12S WCI   6
$$

WIZ003>005-009-010-017-018-280400-
NORTH CENTRAL WISCONSIN

CITY           SKY/WX    TMP DP  RH WIND       PRES   REMARKS
MANITOWISH WTR CLEAR     12  11  96 SW3       29.97S
ARBOR VITAE    CLEAR     17  14  88 W5        29.98R WCI  10
WOODRUFF       CLEAR     17  14  88 W5        29.98R WCI  10
RHINELANDER    CLEAR     11   9  92 W7        29.99R WCI   0
EAGLE RIVER    CLEAR     17  13  85 W7        29.96S WCI   7
LAND O LAKES   CLEAR     18  15  89 W7        29.96S WCI   9
PHILLIPS       CLEAR     13  11  91 SW3       29.99F
TOMAHAWK       CLEAR     15  13  90 CALM      30.01R
MEDFORD        CLEAR     13  11  93 SW5       30.02S WCI   5
MERRILL        CLEAR     17  15  89 W8        30.03R WCI   7
$$

WIZ029-030-035-036-043>047-280400-
CENTRAL WISCONSIN

CITY           SKY/WX    TMP DP  RH WIND       PRES   REMARKS
WAUSAU         CLEAR     18  14  84 W7        30.03R WCI   9
MOSINEE        CLEAR     18  16  93 W6        30.06R WCI   9
MARSHFIELD     CLEAR     17  13  84 W6        30.05S WCI   9
STEVENS POINT  MOCLDY    20  15  82 W8        30.06S WCI  10
WAUPACA        CLOUDY    29  23  76 W8        30.06S WCI  21
WAUTOMA        NOT AVBL
WISC RAPIDS    CLEAR     21  16  81 W5        30.09S WCI  15
CAMP DOUGLAS   NOT AVBL
$$

WIZ011>013-019>022-031-037>040-048>050-280400-
NORTHEAST WISCONSIN

CITY           SKY/WX    TMP DP  RH WIND       PRES   REMARKS
ANTIGO         MOCLDY    20  17  88 W12       30.00R WCI   8
SHAWANO        MOCLDY    30  22  71 W8        30.04R WCI  22
OCONTO         CLOUDY    31  26  81 W16G22    30.02R WCI  20
STURGEON BAY   CLOUDY    32  27  80 W8        30.02R WCI  25
GREEN BAY      CLOUDY    32  25  75 W14       30.03R WCI  22
MANITOWOC      CLOUDY    34  28  80 W14       30.03R WCI  24
APPLETON       MOCLDY    28  21  74 W17       30.04S WCI  16
CLINTONVILLE   MOCLDY    28  21  74 W8        30.04S WCI  20
OSHKOSH        CLOUDY    30  23  75 W6        30.05R WCI  24
$$

WIZ032>034-041-042-053>061-280400-
SOUTHWEST WISCONSIN

CITY           SKY/WX    TMP DP  RH WIND       PRES   REMARKS
LA CROSSE      CLEAR     20  14  77 SW8       30.14S WCI  10
SPARTA         CLEAR     22  17  83 SW3       30.12S
VIROQUA        CLOUDY    21  20  98 W12       30.10S WCI   9
BOSCOBEL       MOCLDY    24  17  74 W8        30.16R WCI  15
PRAIRIE DU CHI PTCLDY    22  16  77 W10       30.17S WCI  11
PLATTEVILLE    CLOUDY    24  20  83 W5        30.14R WCI  18
$$

WIZ056-057-062-063-064-067-068-280400-
SOUTH CENTRAL WISCONSIN

CITY           SKY/WX    TMP DP  RH WIND       PRES   REMARKS
REEDSBURG      MOCLDY    24  19  78 NW6       30.09S WCI  17
BARABOO/DELLS  CLOUDY    26  20  77 W9        30.08F WCI  17
LONE ROCK      NOT AVBL
MINERAL POINT  CLOUDY    28  23  80 W9        30.10S WCI  20
MADISON        MOCLDY    29  21  72 NW10      30.09S WCI  20
MIDDLETON      CLOUDY    30  22  71 NW12      30.09S WCI  21
WATERTOWN      CLOUDY    30  23  76 NW14G20   30.08R WCI  19
MONROE         CLOUDY    28  25  86 W12G18    30.09S WCI  18
JANESVILLE     CLOUDY    32  25  74 W12       30.09R WCI  23
$$

WIZ051-052-058>065-066-070>072-280400-
SOUTHEAST WISCONSIN

CITY           SKY/WX    TMP DP  RH WIND       PRES   REMARKS
MILWAUKEE      MOCLDY    34  25  69 W10       30.07R WCI  26
WAUKESHA       CLOUDY    30  25  80 W13       30.08R WCI  20
MILWAUKEE/TIMM MOCLDY    32  25  74 W13       30.07R WCI  22
RACINE         CLOUDY    34  25  69 W10       30.09R WCI  26
BURLINGTON     CLOUDY    30  24  79 W9        30.08R WCI  22
KENOSHA        CLOUDY    33  26  75 W12       30.08R WCI  24
FOND DU LAC    CLOUDY    30  22  72 NW9       30.07R WCI  22
SHEBOYGAN      CLOUDY    31  25  78 W13       30.05R WCI  21
WEST BEND      CLOUDY    30  25  80 W13G20    30.06R WCI  20
JUNEAU         CLOUDY    28  22  78 W7        30.08R WCI  21
$$

LSZ147-162-280400-
LAKE SUPERIOR

STATION/POSITION TIME  TEMP    WIND        PRES    WAVE
                       AIR SEA DIR/SP/G            HT/PER
                 (UTC) (F)     (DEG/KT/KT) (MB)    (FT/S)
DEVILS ISLAND    0200   27     260/ 20/ 23 1016.1F
PORT WING        0240   24     210/  8/ 11 1016.6S
SAXON HARBOR     0240   21     190/  4/  7 1016.3F
$$

LMZ867-665-643>646-280400-
LAKE MICHIGAN

STATION/POSITION TIME  TEMP    WIND        PRES    WAVE
                       AIR SEA DIR/SP/G            HT/PER
                 (UTC) (F)     (DEG/KT/KT) (MB)    (FT/S)
CHAMBERS ISLAND  0200   33     260/  3/  7 1015.2S
NORTHPORT PIER   0200   33     300/  9/ 12 1014.9S
SISTER BAY       0213          330/ 14/ 14   N/A
ALGOMA LAKESHORE 0245          300/  6/ 12   N/A
KEWAUNEE LAKESHO 0200   34     280/  8/ 11 1015.0R
SHEBOYGAN LAKESH 0200   33 38  280/ 12/ 14 1017.6R
PORT WASHINGTON  0200   34     280/  8/ 12 1018.3S
MILWAUKEE LAKESH 0200   34     280/ 10/ 14   N/A
KENOSHA   LAKESH 0200   35     290/  8/ 12 1018.3R
$$

TC  - TEMPERATURE IN CELSIUS
VSB - VISIBILITY IN STATUTE MILES
WCI - WIND CHILL INDEX
HX  - HEAT INDEX




USA.gov is the U.S. government's official web portal to all federal, state and local government web resources and services.